Regional Weather Roundup
Issued by NWS Upton, NY

Current Version | Previous Version | Text Only | Print | Product List | Glossary Off
Versions: 1 2 3 4 5 6 7 8 9 10 11 12 13 14 15 16 17 18 19 20 21 22 23 24 25 26 27 28 29 30 31 32 33 34 35 36 37 38 39 40 41 42 43 44 45 46 47 48 49 50
000 ASUS41 KOKX 261208 RWROKX REGIONAL WEATHER ROUNDUP NATIONAL WEATHER SERVICE NEW YORK NY 800 AM EDT SUN MAR 26 2017 NOTE: "FAIR" INDICATES FEW OR NO CLOUDS BELOW 12,000 FEET WITH NO SIGNIFICANT WEATHER AND/OR OBSTRUCTIONS TO VISIBILITY. NYZ071-072-176-178-NJZ106-104-261300- NEW YORK CITY METRO AREA CITY SKY/WX TMP DP RH WIND PRES REMARKS Central Park CLOUDY 37 31 78 E14G22 30.46R WCI 28 Wall St Helipt CLOUDY 39 33 79 NE18G24 30.45R WCI 30 LaGuardia APRT CLOUDY 39 32 76 NE18 30.44R WCI 30 Kennedy INTL CLOUDY 39 35 86 NE12 30.45R WCI 32 Breezy Point N/A 37 N/A N/A NE10 N/A WCI 30 Newark/Liberty CLOUDY 40 33 76 NE12 30.44R WCI 33 Teterboro CLOUDY 39 32 76 E14G21 30.44S WCI 31 $$ NYZ177-179-078>081-261300- LONG ISLAND NEW YORK CITY SKY/WX TMP DP RH WIND PRES REMARKS Jones Beach N/A 37 N/A N/A NE13 N/A WCI 29 Matinecock PT NOT AVBL Farmingdale CLOUDY 37 33 85 E7 30.45R WCI 32 MacArthur/ISP CLOUDY 37 34 89 NE9 30.44R WCI 30 Shirley CLOUDY 37 34 89 VRB3 30.45R Westhampton CLOUDY 37 33 85 NE10 30.46R WCI 30 East Hampton CLOUDY 37 33 87 NE7 30.45S WCI 31 Montauk N/A 38 34 85 NE9 30.48R WCI 31 $$ NYZ052-065-067-261300- HUDSON VALLEY CITY SKY/WX TMP DP RH WIND PRES REMARKS White Plains CLOUDY 36 31 82 E9 30.43R WCI 29 Newburgh CLOUDY 34 32 93 VRB6 30.45F WCI 29 Montgomery CLOUDY 34 28 79 NE13 30.43F WCI 25 Poughkeepsie MIX PCPN 32 30 92 N3 30.46S FOG Albany PTSUNNY 29 18 63 NE3 30.50R $$ NJZ001-105-106-008-010-013-015-019>022-104-261300- NEW JERSEY CITY SKY/WX TMP DP RH WIND PRES REMARKS Newark/Liberty CLOUDY 40 33 76 NE12 30.44R WCI 33 Teterboro CLOUDY 39 32 76 E14G21 30.44S WCI 31 Caldwell CLOUDY 38 32 79 NE10 30.44S WCI 31 Somerville CLOUDY 41 33 73 VRB3 30.40R Linden CLOUDY 40 32 74 E6 30.44R Sussex CLOUDY 34 31 88 NE7 30.43R WCI 28 Andover N/A 35 33 92 VRB3 30.41R Trenton CLOUDY 41 37 86 E12 30.40R Millville CLOUDY 44 40 85 NE14 30.36R Atlantic City CLOUDY 43 37 79 NE17G25 30.38R Wrightstown CLOUDY 40 36 83 NE9 30.38R WCI 35 Toms River CLOUDY 40 37 89 E12 30.42R WCI 33 Belmar CLOUDY 39 35 86 NE13 30.43R WCI 31 $$ PAZ047>061-062-071-261300- EASTERN PENNSYLVANIA CITY SKY/WX TMP DP RH WIND PRES REMARKS Philadelphia CLOUDY 43 36 76 E15 30.39R Allentown CLOUDY 40 33 76 E9 30.39S WCI 34 Scranton CLOUDY 37 33 85 VRB6 30.35R WCI 32 $$ CTZ002-004>006-009-010-012-RIZ004-006-007-MAZ004-011-015-261300- SOUTHERN NEW ENGLAND IN CT CITY SKY/WX TMP DP RH WIND PRES REMARKS Bradley INTL CLOUDY 32 28 85 N10 30.50R WCI 24 Hartford PTSUNNY 32 29 88 N8 30.51R WCI 25 Danbury CLOUDY 34 29 82 E6 30.46S WCI 29 Wtrbury/Oxford PTSUNNY 34 21 60 E9G17 30.45R WCI 26 Bridgeport CLOUDY 38 29 70 NE13 30.47R WCI 30 Meriden CLOUDY 34 27 75 N9 30.49R WCI 27 New Haven CLOUDY 36 28 73 NE8 30.47R WCI 30 Chester NOT AVBL Groton CLOUDY 37 28 70 NE14 30.46F WCI 28 Wilimantic PTSUNNY 33 28 81 NE7 30.50R WCI 27 IN RI CITY SKY/WX TMP DP RH WIND PRES REMARKS Providence MOSUNNY 34 26 72 NE10 30.50S WCI 26 Block Island CLOUDY 37 33 85 NE12G17 30.48R WCI 29 Westerly PTSUNNY 35 30 82 NE7 30.49R WCI 29 IN MA CITY SKY/WX TMP DP RH WIND PRES REMARKS Boston MOSUNNY 33 25 72 N9 30.54R WCI 25 Worcester CLOUDY 29 19 66 NE9 30.47S WCI 20 Westfield CLOUDY 31 27 85 N9 30.51R WCI 23 Provincetown SUNNY 39 29 67 E13 30.52R WCI 31 Nantucket SUNNY 38 35 89 NE10 30.47R WCI 31 $$ ANZ330-335-338-340-345-350-353-355-261300- COASTAL MARINE OBSERVATIONS STATION/POSITION TIME SKY/WX TEMP WIND PRES VSBY WAVE AIR SEA DIR/SP/G HT/PER (UTC) (F) (DEG/KT/KT) (MB) (MI) (FT/S) NY HARB ENTRANCE 1050 40 42 60/ 16/ 19 1029.8 4/ 5 20 S FIRE ISLAND 1150 40 40 60/ 17/ 21 1029.8 5/ 6 GREAT SOUTH BAY NOT AVBL 23 SSW MONTAUK P 1050 39 43 1030.8 3/ 4 15 E BARNEGAT LI 1130 43 N/A 6/ 6 HUDSON CANYON 1050 42 45 70/ 19/ 23 1028.6 6/ 6 KINGS POINT 1142 37 39 1031.0 EXECUTION ROCKS NOT AVBL CENTRAL LI SOUND 1115 36 70/ 14/ 16 N/A EASTERN LI SOUND NOT AVBL ROBBINS REEF 1142 38 50/ 15/ 17 1030.8 $$ >>>>>>>>>>>>>>>>>>>>>>>>>>>> KEY <<<<<<<<<<<<<<<<<<<<<<<<<<< > < > SKY/WX - Sky Condition/Present Weather < > TMP - Temperature in Fahrenheit < > DP - Dew Point in Fahrenheit < > RH - Relative Humidity in Percent < > WIND - Direction (from) and Speed in MPH < > PRES - Mean Sea Level Pressure (inches of Hg) < > WCI - Wind Chill Index < > VSB - VISIBILITY IN MILES < > HX - HEAT INDEX < > TC - TEMPERATURE IN CELSIUS < > VRB - VARIABLE WIND DIRECTION < > < >>>>>>>>>>>>>>>>>>>>>>>>>>>> KEY <<<<<<<<<<<<<<<<<<<<<<<<<<<

USA.gov is the U.S. government's official web portal to all federal, state and local government web resources and services.